[[{"header":{"parameterUnit":"m.s-1","parameterCategory":1,"la1":30.2991,"la2":30.254,"lo1":-89.0895,"lo2":-89.0444,"dy":0.0017,"dx":0.0017,"nx":28,"ny":28,"refTime":"2024-12-10T03:00:00:Z","depth":0,"parameterNumber":2,"parameterNumberName":"U-component_of_WINDS"},"data":[0,0,0,0,0,0,0,0,0,0,0,0,0,0,0,0,0,0,0,0,0,0,0,0,0,0,0,0,0,0,0,0,0,0,0,0,0,0,0,0,0,0,0,0,0,0,0,0,0,0,0,0,0,0,0,0,0,0,0.2849,0.285,0,0.2905,0.2906,0.2906,0.2899,0.2898,0.2897,0.2896,0.2957,0.2959,0.2962,0,0,0,0,0,0,0,0,0,0,0,0,0,0.2741,0.2743,0.2849,0.285,0.2851,0.2905,0.2906,0.2906,0.2899,0.2898,0.2897,0.2896,0.2956,0.2959,0.2962,0,0,0,0,0,0,0,0,0,0,0,0,0,0.2791,0.2744,0.2849,0.2853,0.2854,0.2905,0.2906,0.2907,0.2899,0.2898,0.2897,0.2895,0.2955,0.2959,0.2962,0.3013,0,0,0.2973,0.2975,0,0,0,0,0,0,0,0,0.2789,0.2795,0.2852,0.2853,0.2854,0.2894,0.2889,0.2942,0.29,0.2882,0.2896,0.2895,0.2937,0.2942,0.2956,0.3015,0.3018,0.2974,0.2976,0.2978,0.2979,0,0,0,0,0,0,0,0.2785,0.2793,0.2871,0.2853,0.2854,0.2854,0.286,0.2899,0.2917,0.2884,0.2883,0.289,0.2937,0.2952,0.2957,0.3019,0.2974,0.2977,0.2979,0.2981,0.3126,0.3127,0,0,0,0,0,0,0.278,0.279,0.287,0.2873,0.2817,0.2857,0.2863,0.2882,0.2916,0.292,0.2891,0.2889,0.2946,0.2953,0.2959,0.3023,0.2978,0.2981,0.2983,0.3124,0.3126,0.3128,0,0,0,0,0,0,0.2778,0.2787,0.2867,0.2832,0.2842,0.286,0.2882,0.2884,0.2899,0.2922,0.2925,0.2903,0.2946,0.2954,0.3,0.3025,0.2983,0.2986,0.3122,0.3125,0.3127,0.3149,0,0,0,0,0,0,0.2775,0.2786,0.2805,0.2832,0.2844,0.2906,0.2883,0.2886,0.2905,0.2903,0.2934,0.2937,0.2945,0.2994,0.3003,0.3029,0.2989,0.312,0.3123,0.3126,0.3146,0.3151,0.3156,0,0,0,0,0,0.2771,0.2809,0.2806,0.2815,0.2867,0.2907,0.2914,0.2921,0.2907,0.2927,0.2941,0.2936,0.302,0.2999,0.3009,0.3036,0.3118,0.3122,0.3126,0.3143,0.315,0.3156,0,0,0,0,0,0,0.2785,0.2812,0.2809,0.2857,0.288,0.2906,0.2931,0.2928,0.2956,0.2954,0.2962,0.2969,0.3016,0.303,0.3007,0.3088,0.3067,0.3073,0.3077,0.3084,0.3089,0.3086,0.2992,0,0,0,0,0,0.2793,0.2822,0.2845,0.2885,0.2897,0.2912,0.293,0.2933,0.2958,0.2968,0.2986,0.3011,0.3043,0.3064,0.3094,0.3147,0.3155,0.3171,0.3176,0.318,0.3186,0.3218,0.3226,0.314,0.314,0.314,0,0,0.2811,0.283,0.2848,0.2889,0.2907,0.2939,0.292,0.2954,0.2978,0.2973,0.3018,0.3032,0.3061,0.3111,0.3134,0.3124,0.3211,0.3185,0.3188,0.3192,0.3222,0.323,0.3238,0.3142,0.3142,0.3141,0,0,0.2861,0.2877,0.2913,0.2932,0.2959,0.2969,0.2978,0.3005,0.3014,0.3058,0.3056,0.3085,0.314,0.3161,0.3179,0.3238,0.3235,0.3247,0.3276,0.3306,0.3313,0.3319,0.3343,0.3351,0.3252,0.3252,0.3253,0,0.288,0.2927,0.2932,0.2967,0.2986,0.2982,0.302,0.3038,0.3074,0.3088,0.3077,0.3146,0.3165,0.3221,0.3235,0.3249,0.3261,0.3245,0.3311,0.3318,0.3324,0.3346,0.3355,0.3254,0.3254,0.3254,0.3253,0,0.2951,0.2984,0.301,0.3045,0.3067,0.3103,0.3115,0.3137,0.3138,0.315,0.3197,0.3219,0.3255,0.3268,0.327,0.3326,0.3319,0.3309,0.3289,0.3333,0.3355,0.3363,0.3256,0.3256,0.3255,0.3255,0,0,0.3012,0.305,0.3059,0.3076,0.3107,0.3133,0.3169,0.3204,0.3224,0.3249,0.3282,0.3328,0.332,0.334,0.3344,0.3371,0.3419,0.3358,0.3359,0.3371,0.3485,0.3494,0.3504,0.3417,0.3419,0.342,0.3483,0,0.3067,0.3131,0.3137,0.3195,0.3227,0.3224,0.3256,0.3279,0.3291,0.3321,0.3335,0.3368,0.3353,0.3366,0.3392,0.3408,0.3443,0.3403,0.345,0.3452,0.3445,0.3514,0.3524,0.3582,0.3491,0.3493,0.3494,0,0.3139,0.3166,0.3228,0.3256,0.3269,0.3298,0.3331,0.3359,0.3386,0.3393,0.3416,0.3417,0.3457,0.3434,0.3491,0.3464,0.3483,0.3494,0.3496,0.3503,0.3477,0.3526,0.3601,0.3611,0.3507,0.3506,0.3505,0,0.318,0.3232,0.3277,0.3291,0.3324,0.3345,0.3359,0.3385,0.3406,0.3435,0.3449,0.3483,0.3502,0.3528,0.354,0.3521,0.3597,0.3573,0.3606,0.3606,0.3624,0.3623,0.3706,0.3632,0.3632,0.3632,0.3631,0,0.3242,0.3281,0.3296,0.3323,0.3367,0.3374,0.3418,0.3432,0.3455,0.3486,0.3485,0.3515,0.3526,0.3559,0.3567,0.3615,0.3622,0.3631,0.3633,0.3633,0.3632,0.3647,0.3644,0.3634,0.3633,0.3633,0.3632,0,0.3296,0.3308,0.3356,0.3384,0.3391,0.3423,0.3447,0.3474,0.3486,0.3526,0.3535,0.3554,0.3592,0.3605,0.3651,0.3657,0.3713,0.3711,0.3704,0.3705,0.3738,0.3735,0.3836,0.385,0.3764,0.3765,0.3765,0,0.3336,0.3366,0.3396,0.3417,0.3433,0.3466,0.3487,0.3496,0.3519,0.3552,0.3576,0.3614,0.3645,0.3706,0.3724,0.376,0.376,0.3793,0.3766,0.3765,0.3764,0.3763,0.3768,0.3799,0.38,0.38,0.3801,0,0.3406,0.3411,0.3441,0.3475,0.3501,0.3527,0.3553,0.357,0.3583,0.3609,0.3648,0.3671,0.3719,0.3757,0.3794,0.3811,0.3809,0.3809,0.3819,0.382,0.3816,0.3821,0.3721,0.3807,0.3807,0.3806,0.3806,0.3806,0.3457,0.3484,0.351,0.3545,0.3565,0.359,0.3617,0.3632,0.3665,0.3703,0.3707,0.3749,0.3777,0.3826,0.3845,0.3879,0.3871,0.3884,0.3888,0.3892,0.3896,0.3808,0.3886,0.3886,0.3885,0.3885,0.3885,0,0.3529,0.3546,0.3578,0.3614,0.3642,0.3636,0.3665,0.369,0.3727,0.3752,0.3783,0.3828,0.3866,0.3887,0.3925,0.3949,0.3949,0.3959,0.3959,0.3963,0.39,0.3889,0.3958,0.3958,0.3958,0.3958,0.3958,0.3958,0.357,0.3617,0.3625,0.3682,0.3699,0.374,0.3757,0.3781,0.3801,0.3852,0.3883,0.3897,0.3922,0.3961,0.3996,0.4002,0.4017,0.4028,0.4033,0.3974,0.3967,0.396,0.395,0.403,0.4031,0.4093,0.4094,0.4094]},{"header":{"parameterUnit":"m.s-1","parameterCategory":1,"la1":30.2991,"la2":30.254,"lo1":-89.0895,"lo2":-89.0444,"dy":0.0017,"dx":0.0017,"nx":28,"ny":28,"refTime":"2024-12-10T03:00:00:Z","depth":0,"parameterNumber":3,"parameterNumberName":"V-component_of_WINDS"},"data":[0,0,0,0,0,0,0,0,0,0,0,0,0,0,0,0,0,0,0,0,0,0,0,0,0,0,0,0,0,0,0,0,0,0,0,0,0,0,0,0,0,0,0,0,0,0,0,0,0,0,0,0,0,0,0,0,0,0,3.8046,3.8046,0,3.8128,3.8129,3.813,3.8118,3.8117,3.8115,3.8114,3.8199,3.8203,3.8206,0,0,0,0,0,0,0,0,0,0,0,0,0,3.788,3.7883,3.8045,3.8046,3.8047,3.8128,3.8129,3.813,3.8118,3.8117,3.8115,3.8113,3.8198,3.8202,3.8206,0,0,0,0,0,0,0,0,0,0,0,0,0,3.7956,3.7884,3.8045,3.8051,3.8053,3.8128,3.8129,3.813,3.8119,3.8116,3.8114,3.8112,3.8196,3.8202,3.8207,3.8281,0,0,3.8223,3.8226,0,0,0,0,0,0,0,0,3.7952,3.7962,3.8049,3.8051,3.8053,3.8111,3.8102,3.8181,3.8119,3.8094,3.8114,3.8111,3.8171,3.8179,3.8199,3.8285,3.8289,3.8224,3.8227,3.8229,3.8231,0,0,0,0,0,0,0,3.7947,3.7959,3.8078,3.8051,3.8053,3.8051,3.8059,3.8117,3.8143,3.8096,3.8095,3.8105,3.8172,3.8194,3.8201,3.829,3.8224,3.8228,3.8232,3.8234,3.8446,3.8448,0,0,0,0,0,0,3.7939,3.7954,3.8075,3.8081,3.7996,3.8055,3.8065,3.8094,3.8142,3.8148,3.8107,3.8104,3.8185,3.8194,3.8204,3.8296,3.8229,3.8234,3.8237,3.8443,3.8446,3.8449,0,0,0,0,0,0,3.7936,3.795,3.8072,3.8017,3.8033,3.806,3.8093,3.8097,3.8118,3.8151,3.8155,3.8124,3.8184,3.8196,3.8263,3.8299,3.8237,3.8241,3.844,3.8444,3.8447,3.8481,0,0,0,0,0,0,3.7931,3.7949,3.7977,3.8018,3.8036,3.813,3.8095,3.81,3.8128,3.8125,3.8168,3.8173,3.8183,3.8255,3.8268,3.8305,3.8246,3.8437,3.8442,3.8446,3.8477,3.8485,3.8493,0,0,0,0,0,3.7925,3.7983,3.7978,3.7993,3.8071,3.8132,3.8142,3.8152,3.813,3.816,3.8181,3.8172,3.8293,3.8262,3.8277,3.8316,3.8435,3.8441,3.8446,3.8473,3.8484,3.8493,0,0,0,0,0,0,3.7945,3.7988,3.7984,3.8056,3.809,3.8129,3.8166,3.8162,3.8203,3.8199,3.8211,3.8221,3.8289,3.8309,3.8274,3.8392,3.8361,3.837,3.8377,3.8387,3.8395,3.8389,3.825,0,0,0,0,0,3.7957,3.8003,3.8038,3.8098,3.8116,3.8138,3.8165,3.817,3.8206,3.822,3.8246,3.8282,3.8328,3.8358,3.8402,3.8479,3.849,3.8514,3.8522,3.8528,3.8536,3.8581,3.8593,3.8467,3.8467,3.8467,0,0,3.7984,3.8013,3.8041,3.8103,3.813,3.8178,3.815,3.8201,3.8237,3.8228,3.8294,3.8314,3.8355,3.8428,3.8461,3.8446,3.8573,3.8535,3.854,3.8544,3.8588,3.86,3.861,3.847,3.847,3.8469,0,0,3.8058,3.8083,3.8138,3.8166,3.8208,3.8223,3.8236,3.8276,3.829,3.8355,3.835,3.8393,3.8472,3.8502,3.8528,3.8615,3.861,3.8629,3.8671,3.8715,3.8725,3.8734,3.8767,3.8779,3.8636,3.8636,3.8637,0,3.8086,3.8157,3.8166,3.8219,3.8247,3.8242,3.8298,3.8325,3.8379,3.8399,3.8382,3.8482,3.8509,3.8591,3.8612,3.8632,3.8649,3.8625,3.8722,3.8731,3.874,3.8772,3.8785,3.8639,3.8638,3.8638,3.8638,0,3.8191,3.824,3.8279,3.8333,3.8365,3.8419,3.8438,3.847,3.8473,3.849,3.8559,3.8591,3.8643,3.8662,3.8664,3.8744,3.8734,3.872,3.8689,3.8754,3.8785,3.8797,3.8642,3.8641,3.8641,3.864,0,0,3.8279,3.8338,3.8352,3.8378,3.8424,3.8463,3.8518,3.8569,3.8597,3.8635,3.8683,3.875,3.8738,3.8767,3.8773,3.8811,3.8882,3.8792,3.8793,3.8809,3.8975,3.8987,3.9001,3.8877,3.888,3.8882,3.8972,0,3.8359,3.8455,3.8466,3.8553,3.86,3.8597,3.8645,3.8679,3.8697,3.874,3.876,3.8809,3.8787,3.8805,3.8842,3.8865,3.8915,3.8858,3.8924,3.8926,3.8916,3.9017,3.903,3.9114,3.8984,3.8986,3.8987,0,3.8464,3.8507,3.8598,3.8641,3.8661,3.8704,3.8753,3.8794,3.8834,3.8844,3.8878,3.888,3.8938,3.8903,3.8985,3.8946,3.8973,3.8988,3.8992,3.9,3.8962,3.903,3.914,3.9154,3.9006,3.9004,3.9003,0,3.8523,3.8602,3.8668,3.8689,3.874,3.8771,3.8793,3.8831,3.8862,3.8905,3.8925,3.8974,3.9001,3.9039,3.9055,3.9028,3.9136,3.9103,3.9148,3.9148,3.9173,3.9171,3.9291,3.9186,3.9186,3.9186,3.9186,0,3.8612,3.8669,3.8695,3.8736,3.88,3.8813,3.8877,3.8898,3.8932,3.8978,3.8976,3.9019,3.9036,3.9083,3.9095,3.9162,3.9173,3.9185,3.9188,3.9186,3.9185,3.9206,3.9201,3.9189,3.9189,3.9188,3.9187,0,3.8689,3.8708,3.8781,3.8823,3.8835,3.8881,3.8918,3.8958,3.8975,3.9033,3.9048,3.9076,3.913,3.9149,3.9215,3.9223,3.9302,3.9299,3.9289,3.929,3.9336,3.9332,3.9475,3.9495,3.9375,3.9376,3.9377,0,3.8746,3.879,3.8837,3.8868,3.8892,3.8941,3.8973,3.8988,3.9021,3.9071,3.9106,3.916,3.9204,3.9292,3.9319,3.937,3.9369,3.9416,3.9377,3.9375,3.9373,3.9371,3.9377,3.9423,3.9425,3.9426,3.9427,0,3.8845,3.8854,3.8899,3.895,3.8988,3.9028,3.9067,3.9093,3.9113,3.9151,3.9207,3.9242,3.931,3.9364,3.9417,3.9441,3.9438,3.9438,3.9452,3.9452,3.9446,3.9453,3.9311,3.9435,3.9435,3.9434,3.9433,3.9433,3.8916,3.8956,3.8997,3.9049,3.908,3.9116,3.9157,3.918,3.9227,3.9285,3.929,3.9351,3.9392,3.9462,3.9489,3.9538,3.9525,3.9544,3.9549,3.9554,3.9559,3.9436,3.9547,3.9546,3.9546,3.9546,3.9546,0,3.9018,3.9044,3.9092,3.9147,3.9189,3.9182,3.9225,3.9261,3.9315,3.9353,3.9397,3.9463,3.9516,3.9548,3.9601,3.9635,3.9635,3.9649,3.9648,3.9654,3.9566,3.955,3.9648,3.9648,3.9648,3.9648,3.9648,3.9648,3.9076,3.9145,3.9158,3.9242,3.9268,3.9328,3.9354,3.9389,3.942,3.9493,3.9538,3.9558,3.9594,3.9651,3.9701,3.9708,3.9729,3.9745,3.9752,3.967,3.9659,3.965,3.9635,3.9749,3.9749,3.9836,3.9837,3.9837]}]]